Lid_Strength_Index
1 1 0 -0 0 0 -1 -1 -0 0 1 2 2 2 2 1 2 7 9 6 4 1 2 6 8 8 8 9 9 11 15 16 16 16 15 13 14 14 13 14 14 13 12 10 9
1 1 0 0 0 -0 -0 -0 -0 0 1 2 2 2 2 2 8 10 5 2 2 2 7 9 11 10 12 11 11 13 16 15 15 16 15 14 14 15 15 15 15 13 10 9 9
1 0 0 0 0 0 -0 -0 0 0 1 2 2 2 2 4 10 11 3 2 1 2 6 7 9 10 12 11 13 13 14 14 14 13 13 13 14 14 15 16 14 14 11 10 10
0 0 0 0 0 0 0 0 1 1 1 2 3 2 2 8 14 10 3 3 2 5 7 9 10 12 12 13 11 14 13 13 12 12 13 14 13 14 15 14 13 13 10 10 10
0 1 0 0 0 1 0 1 1 1 2 2 2 2 7 12 12 8 3 5 6 7 9 10 12 12 13 13 12 13 13 12 12 12 13 12 14 14 14 13 13 12 9 10 9
1 1 1 1 0 0 1 1 2 2 2 3 2 2 10 13 9 8 8 7 7 8 10 10 11 11 12 13 13 13 13 13 12 12 12 13 14 13 14 13 12 11 10 10 9
1 1 1 1 1 1 1 1 2 3 3 4 3 7 12 13 10 9 8 8 8 8 10 9 9 11 12 14 12 13 15 14 13 13 13 13 16 15 14 12 13 12 11 10 10
1 1 1 1 1 2 1 1 2 3 3 3 4 10 14 9 11 9 9 8 8 8 9 9 9 10 12 11 12 14 15 18 13 13 13 14 16 14 13 13 13 13 12 12 11
1 1 1 2 2 2 2 1 2 3 2 3 9 11 15 7 11 9 9 10 9 8 9 8 10 13 12 14 15 15 19 17 15 13 14 15 16 13 13 13 13 13 13 12 12
1 1 1 1 1 1 1 1 2 4 7 6 9 11 12 13 11 10 9 9 10 10 10 11 12 15 17 17 20 20 19 18 18 15 15 16 16 13 12 13 13 13 14 13 12
2 1 2 1 1 2 5 7 9 9 11 14 14 13 13 10 9 9 9 10 10 11 16 13 17 20 18 17 17 17 18 18 16 15 17 17 17 15 13 15 15 15 15 14 13
2 2 2 2 1 3 7 10 11 10 13 12 12 12 12 10 11 10 8 12 14 17 13 15 19 15 14 14 16 17 19 20 16 16 17 18 17 15 14 15 15 15 15 14 13
2 2 2 1 1 6 9 10 7 8 13 12 12 12 12 10 12 12 10 12 16 17 17 16 15 13 14 16 17 18 19 19 19 17 18 19 20 18 16 15 14 14 14 14 13
2 2 2 1 5 7 9 7 7 8 18 13 12 12 10 10 12 9 9 11 13 18 16 16 14 14 16 17 17 19 17 17 18 22 24 19 24 19 18 16 15 15 15 14 13
3 2 2 3 6 8 7 6 7 9 22 12 12 10 10 11 11 10 8 10 14 15 16 16 15 16 16 16 15 17 16 17 18 24 24 22 26 20 17 17 16 15 14 14 13
3 3 2 5 7 7 6 7 8 16 23 16 11 12 12 10 10 9 10 9 10 12 13 14 12 14 14 14 14 14 16 17 19 25 27 26 24 20 17 17 16 15 14 13 13
3 3 4 5 8 6 6 9 16 21 16 17 15 12 13 14 12 11 12 13 15 19 20 15 15 13 13 15 14 16 22 25 24 25 24 28 24 18 16 15 14 14 14 14 13
2 4 5 6 6 6 9 14 22 21 20 13 12 12 15 13 13 12 14 16 14 15 21 23 21 18 13 15 16 17 20 23 28 25 23 27 25 17 15 14 14 13 13 13 14
3 6 7 6 5 6 12 22 19 17 13 14 13 18 19 13 15 16 15 16 14 15 20 22 20 14 14 14 15 18 24 18 26 31 28 23 20 15 15 16 15 14 14 14 14
6 7 8 5 5 10 16 18 18 12 11 13 17 16 24 18 16 18 17 14 14 14 16 17 22 18 14 14 15 18 16 23 25 28 30 25 27 18 18 18 17 15 15 14 14
8 11 7 6 8 14 21 23 15 12 10 13 14 16 15 19 16 18 16 14 13 15 13 18 21 20 16 21 21 21 23 22 22 21 25 28 22 18 18 17 18 16 15 15 15
10 16 7 8 15 19 16 14 11 12 11 12 12 13 15 15 16 20 16 15 13 14 16 15 18 24 19 16 15 17 20 19 22 25 24 23 22 18 16 21 23 18 15 16 17
14 14 8 10 21 17 13 14 12 13 13 13 14 12 13 18 19 15 14 12 12 14 15 15 22 27 21 19 17 19 17 17 21 19 24 25 20 20 23 20 18 19 18 16 15
13 17 15 12 15 16 17 17 17 12 12 12 13 12 13 18 15 19 15 13 12 13 10 12 16 21 22 23 22 22 19 17 19 27 22 20 17 17 15 17 16 18 18 18 17
14 15 16 20 15 15 14 16 16 17 12 12 15 14 16 20 18 21 15 14 13 11 13 15 20 18 18 19 21 19 20 20 20 19 21 17 17 16 14 13 12 12 17 17 15
14 15 15 14 14 14 15 15 16 16 14 15 17 14 14 20 15 17 15 15 15 14 14 14 19 21 19 16 16 18 16 16 17 16 16 16 17 11 11 10 14 16 17 16 13
11 11 13 14 14 16 16 14 14 13 13 12 13 14 14 14 13 12 11 11 12 14 15 15 17 21 20 20 22 21 18 16 16 15 15 18 15 13 13 12 13 13 14 12 11